Temp_Advection
nan nan nan nan nan nan nan nan nan nan nan nan nan nan nan nan nan nan nan nan nan nan nan nan nan nan nan nan nan nan nan nan nan nan nan nan nan nan nan nan nan nan nan
nan -0 0 0 1 1 1 0 1 1 1 1 0 -0 -0 -0 0 0 0 0 0 -0 -0 -0 -0 -0 -0 -0 -0 -0 -0 -0 -0 -1 -1 -1 -1 -1 -1 -1 -1 -1 nan
nan 0 1 1 1 0 0 0 0 0 0 0 0 -0 0 0 0 0 0 0 -0 -0 -0 -0 -0 -0 -0 -0 0 0 -0 -0 -0 -0 -0 -1 -1 -1 -1 -1 -1 -1 nan
nan 1 1 0 0 0 0 0 0 0 -0 -0 0 0 0 0 0 0 -0 -0 -0 -0 0 0 -0 -0 -0 0 0 -0 0 0 -0 -1 -0 -0 -1 -1 -1 -1 -1 -1 nan
nan 0 0 0 0 0 0 1 0 -0 -0 0 0 0 0 0 0 0 -0 -0 -0 -0 -0 -0 -0 -0 0 0 0 1 1 0 -1 -1 -1 -1 -1 -1 -1 -1 -1 -1 nan
nan 0 1 1 0 1 1 0 -0 -0 0 0 0 0 0 0 0 0 0 0 -0 -0 -0 -0 -0 -1 -1 -0 0 1 1 1 -0 -0 -1 -1 -1 -1 -1 -1 -1 -1 nan
nan 0 -0 1 0 -0 0 -0 -0 0 0 0 0 0 0 0 0 0 0 0 0 -0 -1 -0 -0 -0 -0 -0 -0 0 0 0 0 0 0 -0 -1 -1 -1 -2 -1 -1 nan
nan -0 -0 -0 0 -0 0 0 0 0 0 0 0 0 -0 0 0 0 -0 -0 -0 -1 -0 -0 -0 -0 -0 0 0 -0 -0 0 0 -0 -0 -0 -0 -0 0 -0 -2 -2 nan
nan 0 -0 0 0 0 0 0 0 0 0 0 -0 0 0 -0 -0 -0 -0 -0 -0 -0 -0 -0 -1 -0 -0 0 0 -0 -1 -1 -1 0 0 0 -0 -0 -0 0 0 -0 nan
nan 0 0 0 0 0 0 0 0 0 0 0 0 0 -0 -0 -0 -0 -0 -0 -0 -0 -0 -0 -0 -0 -0 -0 0 -0 -0 -1 -1 -0 0 0 -0 -0 -0 -0 -0 0 nan
nan -0 -0 0 0 0 0 0 0 0 0 -0 -0 -0 -0 -0 -0 -0 -0 -0 -0 -0 -0 -0 0 0 -0 -0 -0 -0 -0 -0 -0 -1 -0 0 -0 -0 -0 -0 -0 -0 nan
nan -0 -0 -0 0 0 -0 -0 0 -0 -0 -0 -0 -0 -0 -0 -0 -0 0 0 0 0 0 -0 -0 0 0 0 -0 -0 0 0 -0 -0 0 -0 -1 -0 -0 -0 0 0 nan
nan -0 -0 -0 0 0 0 -0 -0 -0 -0 -0 -0 -0 -0 -0 -0 -0 -0 -0 0 0 -0 -0 -0 -0 -0 -0 -0 0 0 0 0 -0 -0 -1 -1 -0 0 -0 -0 -0 nan
nan -0 -0 -0 -0 -0 0 -0 -0 -0 -0 -0 -0 -0 -0 -0 -0 -0 -0 -0 0 -0 -0 -0 -0 -0 -0 -0 -1 -0 0 0 0 0 0 1 0 -0 -0 -0 -0 -1 nan
nan 0 0 0 -0 -0 -0 -0 -0 -0 -0 -0 -0 -0 -0 -0 -0 -0 -0 -0 -0 -0 -0 -0 -0 -0 -0 0 0 -0 -0 -0 0 0 0 0 -0 -0 -1 -0 -0 -0 nan
nan 0 0 -0 -0 -0 -0 -0 -0 -0 -0 -0 -0 -0 -0 -0 -0 -0 -0 -0 -0 -0 -0 -0 -0 -0 -0 -0 -0 -0 -0 0 0 -0 -0 -0 -0 -0 -0 -0 -0 -0 nan
nan -0 -0 -0 -0 -0 -0 -0 -0 -0 -0 -0 -0 -0 -0 -0 -0 -0 -0 -0 -0 -0 -0 -0 -0 -0 -0 0 -0 0 0 -0 0 0 -0 -0 -0 -0 -0 -0 -0 0 nan
nan -0 -0 -0 -0 -0 -0 -0 -0 -0 -0 -0 -0 -0 -0 -0 -0 -0 -0 -0 -0 -0 -0 -0 -0 -0 -0 -0 -0 -0 -0 0 0 0 0 -0 0 0 0 0 0 0 nan
nan -0 -0 0 -0 -0 -0 -0 -0 -0 -0 -0 -0 -0 -0 -0 -0 -0 -0 -0 -0 -0 -0 -0 -0 -0 0 0 -0 -0 -0 -0 -0 0 0 0 0 -0 0 0 0 0 nan
nan -0 -0 0 -0 -0 -0 -0 -0 -0 -0 -0 -0 -0 -0 -0 -0 -0 -0 -0 -0 -0 -0 -0 -0 0 -0 0 0 -0 -0 -0 -0 -0 -0 0 0 0 0 0 0 0 nan
nan 0 -0 -0 -0 -0 -0 -0 -0 -0 -0 -0 -0 -0 -0 -0 -0 -0 -0 -0 -0 -0 -0 -0 0 -0 -0 -0 -0 -0 -0 -0 -0 -0 0 0 0 0 0 0 0 0 nan
nan 0 0 -0 -0 -0 -0 -0 -0 -0 -0 -0 -0 -0 -0 -0 -0 -0 -0 -0 -0 0 0 -0 -0 -0 0 -0 -0 -0 -0 -0 -0 -0 0 0 0 0 0 0 0 0 nan
nan 0 0 0 -0 -0 -0 -0 -0 -0 -0 -0 -0 -0 -0 -0 -0 -0 -0 -0 0 0 0 0 0 0 -0 -0 -0 -0 -0 -0 -0 0 0 -0 -0 0 0 0 0 0 nan
nan 0 0 0 0 -0 -0 -0 -0 -0 -0 -0 -0 -0 -0 -0 -0 -0 -0 -0 -0 0 0 0 -0 -0 0 -0 -0 -0 -0 -0 -0 -0 -0 -0 -0 -0 0 0 0 0 nan
nan 0 0 0 0 0 0 0 -0 -0 -0 -0 -0 -0 -0 -0 -0 -0 -0 0 0 0 0 -0 -0 0 0 0 -0 -0 -0 -0 -0 0 0 -0 -0 -0 -0 -0 0 0 nan
nan nan nan nan nan nan nan nan nan nan nan nan nan nan nan nan nan nan nan nan nan nan nan nan nan nan nan nan nan nan nan nan nan nan nan nan nan nan nan nan nan nan nan
Wind_Speed
29 31 32 29 24 22 20 17 16 20 26 21 29 16 17 22 27 30 32 34 35 36 35 35 36 35 35 35 34 33 35 36 40 39 36 34 35 36 38 36 27 31 33
28 29 26 22 20 16 15 16 17 17 17 21 13 17 24 27 30 33 35 36 37 37 37 37 38 38 39 39 38 38 38 38 39 45 37 36 35 32 33 34 32 34 37
28 27 19 15 13 14 13 10 12 17 18 17 17 22 27 32 34 35 36 35 35 35 37 37 38 37 38 39 39 38 38 36 36 41 38 32 29 29 29 31 34 32 32
23 19 16 12 8 9 13 13 11 15 14 19 23 29 31 33 34 32 33 34 33 34 34 33 34 36 39 40 42 45 46 45 43 45 49 42 36 32 29 31 34 33 38
15 10 9 10 12 14 16 19 10 15 21 26 28 29 33 32 33 32 29 32 37 41 44 45 46 47 48 49 51 54 48 45 42 43 47 42 40 33 27 27 29 33 33
16 19 16 14 16 21 13 15 16 21 25 25 30 30 31 34 31 31 34 37 40 42 46 48 48 45 41 40 40 40 40 40 40 39 43 42 39 35 30 28 22 22 29
24 21 21 24 15 11 10 11 21 23 27 30 32 34 32 30 32 35 39 41 38 35 32 33 34 34 34 35 34 34 35 36 37 39 44 41 36 35 34 39 35 29 18
16 8 6 5 4 6 15 19 23 26 28 32 31 28 30 33 36 35 30 27 29 30 31 33 36 36 35 34 34 35 34 34 35 38 41 42 40 36 36 35 37 44 34
9 3 2 6 12 14 18 20 23 28 31 28 28 32 35 31 36 31 27 27 31 34 35 37 37 33 41 35 34 39 41 42 36 34 36 36 37 36 32 31 32 32 38
2 6 6 10 16 16 18 22 27 27 26 30 30 26 28 36 33 27 25 29 33 34 34 34 35 35 34 33 32 34 36 36 36 35 35 35 35 35 35 35 33 34 31
3 8 16 15 16 18 23 25 24 26 26 23 25 30 29 32 27 26 25 27 28 32 33 36 33 30 29 28 30 31 34 33 33 37 34 31 30 30 32 35 38 37 35
15 14 15 17 19 21 21 22 24 23 23 26 30 31 30 26 26 29 23 25 26 28 30 30 29 26 24 24 26 29 31 31 31 29 35 34 33 29 28 29 31 35 38
15 17 17 19 19 19 22 22 20 21 25 27 30 29 30 29 30 25 24 27 25 26 24 24 23 19 18 18 18 20 21 25 29 33 38 34 33 28 27 27 28 30 30
18 19 19 19 19 20 18 17 19 21 26 26 26 27 30 29 31 24 28 28 21 22 21 20 22 17 16 15 16 15 13 18 23 27 31 28 32 29 25 25 24 27 30
21 21 19 18 17 15 17 18 19 21 18 23 23 24 26 29 24 24 24 20 20 19 20 20 22 19 17 16 12 8 11 14 6 11 17 17 19 22 22 19 21 25 26
20 20 16 15 15 21 19 18 15 17 19 19 17 20 26 18 19 21 17 12 11 16 22 27 23 23 20 19 18 10 10 12 10 6 1 6 12 14 15 19 18 24 22
21 16 14 14 20 22 16 17 22 20 21 17 18 22 20 13 17 17 11 8 10 14 19 21 26 22 20 20 18 17 13 8 8 5 1 5 8 7 11 15 19 18 15
16 14 16 16 20 18 15 18 18 20 23 21 20 23 19 14 14 12 9 8 12 15 19 20 23 26 22 20 18 16 14 13 7 2 2 3 6 4 5 8 9 10 14
13 13 12 15 20 16 16 17 18 17 18 19 20 21 19 15 13 13 11 14 16 16 17 18 19 22 24 21 19 17 14 13 10 10 11 9 4 1 4 6 7 9 13
11 13 15 18 16 16 17 18 15 16 17 17 18 20 19 15 16 17 17 16 15 15 16 16 17 18 20 22 19 19 17 15 12 10 5 3 1 3 4 5 6 8 11
13 11 13 14 12 14 18 14 15 16 17 14 15 16 15 14 14 15 17 17 17 16 15 16 16 16 17 18 20 21 19 19 18 13 9 7 4 7 8 7 8 9 11
14 12 15 14 11 15 14 14 14 14 15 14 13 14 13 13 13 13 14 16 16 16 16 15 15 17 18 17 17 18 20 19 18 16 13 10 8 6 5 7 9 10 12
15 13 16 13 12 13 12 13 12 13 13 14 12 13 12 12 12 12 13 13 13 14 15 16 16 15 14 15 16 16 17 16 15 14 14 11 9 8 7 7 8 9 11
17 15 15 12 13 11 11 11 11 12 12 13 12 11 12 11 11 11 11 11 11 12 13 13 14 14 13 13 14 15 14 13 12 11 12 12 13 12 11 11 10 10 11
15 15 14 14 11 11 12 11 10 11 10 11 12 11 10 10 10 10 10 11 12 11 12 13 13 13 12 11 12 12 11 12 13 12 11 10 10 11 12 12 13 12 11
12 13 13 11 11 12 11 10 10 10 8 10 12 10 8 8 9 10 10 11 11 12 13 13 14 13 13 13 13 12 10 10 11 11 10 10 10 11 9 9 10 10 10
Wind_Direction
310 301 297 290 285 256 239 229 227 254 285 285 296 309 306 292 291 292 289 289 287 287 286 285 285 285 283 282 282 283 282 281 277 282 283 282 278 275 272 268 273 267 272
310 299 288 281 266 254 253 254 252 262 291 305 304 290 289 291 288 288 288 287 287 286 285 284 282 281 280 280 280 278 278 277 278 282 283 283 281 279 275 273 267 267 268
308 292 277 269 269 274 261 250 273 280 293 316 293 286 292 289 291 292 291 291 289 287 285 284 284 283 281 281 280 279 277 276 274 275 280 280 276 275 275 270 266 267 268
294 277 277 284 286 233 236 258 273 295 299 288 291 293 295 295 297 295 294 293 288 284 281 279 276 275 275 274 274 273 273 273 274 274 276 278 278 276 275 274 268 261 258
286 260 236 217 214 225 253 269 283 303 296 297 294 294 296 296 294 298 292 284 283 283 282 282 280 279 279 279 278 276 274 271 270 271 271 272 270 273 272 273 267 266 262
284 268 245 243 267 280 277 278 306 293 296 293 296 298 295 297 297 290 289 289 288 287 286 286 286 286 285 284 281 276 271 270 267 264 265 264 266 264 261 263 273 266 261
273 267 272 280 302 328 290 288 288 293 295 298 298 301 302 297 294 297 298 297 294 294 293 292 292 292 293 291 290 287 282 272 263 265 267 264 264 263 263 258 256 271 264
299 336 12 7 305 252 280 293 294 296 298 302 305 304 300 298 303 308 310 305 301 299 298 299 298 292 293 290 287 285 282 280 272 263 262 266 268 270 269 264 264 255 263
6 37 98 270 278 287 298 297 296 298 303 309 305 305 305 310 315 316 312 311 310 308 305 302 300 291 295 290 285 280 282 281 280 270 265 266 268 268 268 268 260 252 257
2 277 278 301 304 305 299 299 302 305 305 307 311 309 311 313 318 319 316 310 308 306 305 306 303 295 291 287 283 280 277 277 275 274 272 269 263 261 257 257 259 253 248
318 314 313 315 307 300 300 303 308 307 314 316 310 310 315 322 325 324 320 316 315 315 312 313 312 309 293 288 284 277 276 275 272 274 269 268 264 259 256 255 252 253 255
316 324 321 315 311 308 311 311 313 318 318 314 319 322 328 334 334 333 333 333 328 321 321 320 322 319 309 290 282 277 278 275 264 266 265 262 260 259 259 257 254 252 252
321 320 319 316 317 319 317 320 329 326 319 324 328 332 335 338 335 337 338 339 334 330 326 328 320 316 308 297 292 288 281 272 265 258 253 252 256 259 259 260 258 257 251
326 326 321 320 318 316 325 335 329 323 325 331 334 335 337 334 335 340 340 339 345 340 335 336 339 330 330 320 306 298 305 289 276 266 257 256 248 244 251 256 258 256 242
319 318 320 318 321 330 333 327 324 327 341 338 334 334 335 332 340 339 333 339 343 353 3 3 8 4 359 8 8 2 355 354 273 261 257 253 241 237 245 248 243 232 225
319 324 323 326 339 336 328 334 348 344 343 341 338 334 335 338 341 332 338 342 360 15 20 17 14 20 20 20 28 34 18 13 32 50 85 235 237 243 237 242 256 222 215
326 334 339 346 342 339 344 345 344 339 342 348 347 341 348 350 342 343 347 352 12 25 30 29 21 24 27 30 32 40 41 33 24 30 226 214 253 255 254 215 230 215 217
333 340 334 335 334 339 346 340 338 339 346 348 350 349 358 1 354 3 19 29 40 44 42 34 33 28 29 31 31 31 37 51 53 39 289 189 152 158 176 188 198 216 215
334 329 326 325 335 339 337 333 336 342 345 348 348 353 4 11 18 29 38 48 46 42 42 44 40 41 37 37 35 37 39 39 38 66 110 135 144 45 175 191 199 210 218
321 317 319 323 330 334 336 341 343 349 347 353 353 356 1 7 19 29 36 42 50 48 44 42 41 43 47 48 42 40 39 39 43 51 53 73 158 194 191 194 202 201 203
329 321 324 325 322 329 335 338 344 344 348 352 353 356 2 14 22 26 32 36 40 46 46 48 49 48 48 50 53 49 43 41 40 47 58 64 82 132 161 181 191 194 197
335 329 335 337 329 334 342 345 342 344 346 349 350 353 2 13 21 25 32 37 42 45 51 54 53 51 52 48 49 53 53 44 42 47 58 66 75 94 133 157 164 170 172
343 337 333 338 336 334 339 344 345 347 346 353 349 352 2 8 14 20 26 33 39 46 50 56 60 58 53 53 51 50 51 49 42 45 54 65 75 83 99 123 140 153 166
337 336 335 337 334 340 342 339 342 342 342 350 353 355 6 11 16 21 24 30 35 39 40 44 49 52 53 53 52 50 49 51 54 54 50 59 68 81 98 107 118 132 145
325 323 336 335 335 331 329 326 331 339 341 345 351 354 359 13 23 29 32 37 40 41 44 46 48 47 48 47 49 49 45 40 44 48 58 70 78 84 91 100 106 107 116
326 329 333 335 329 328 330 330 326 340 333 342 346 350 359 4 19 31 39 39 43 46 47 48 48 48 49 50 49 47 45 46 45 43 41 49 68 84 98 115 124 123 117
Height
1467 1463 1459 1457 1456 1455 1454 1454 1455 1456 1455 1457 1458 1458 1459 1460 1459 1457 1454 1451 1448 1445 1443 1441 1438 1437 1435 1434 1433 1432 1429 1428 1420 1419 1420 1421 1421 1422 1424 1425 1426 1426 1426
1460 1455 1453 1452 1450 1450 1451 1451 1450 1452 1453 1454 1454 1455 1454 1453 1451 1449 1445 1443 1439 1436 1434 1432 1429 1428 1425 1424 1423 1422 1420 1420 1416 1406 1411 1410 1411 1412 1412 1413 1415 1416 1417
1454 1450 1448 1447 1447 1447 1447 1448 1449 1448 1450 1449 1449 1448 1447 1445 1443 1440 1437 1433 1430 1427 1424 1422 1420 1418 1415 1414 1412 1411 1410 1409 1407 1400 1398 1400 1401 1403 1403 1403 1404 1406 1407
1451 1447 1444 1444 1444 1445 1445 1445 1445 1446 1446 1445 1444 1443 1440 1437 1434 1431 1428 1424 1421 1417 1415 1413 1410 1408 1406 1405 1403 1401 1400 1398 1397 1393 1388 1389 1392 1394 1396 1395 1394 1397 1397
1449 1446 1442 1441 1441 1441 1441 1442 1442 1443 1443 1441 1438 1435 1433 1429 1426 1423 1419 1415 1411 1407 1404 1401 1399 1397 1395 1393 1391 1388 1388 1386 1386 1384 1377 1379 1380 1383 1386 1388 1386 1387 1387
1446 1443 1440 1438 1438 1437 1438 1439 1439 1440 1437 1435 1431 1428 1424 1422 1418 1414 1410 1405 1400 1396 1391 1387 1385 1383 1380 1378 1376 1374 1375 1374 1373 1372 1367 1368 1370 1374 1378 1379 1379 1377 1377
1437 1435 1435 1434 1434 1435 1435 1436 1436 1434 1431 1428 1424 1421 1417 1413 1410 1406 1401 1395 1388 1384 1380 1376 1373 1371 1369 1366 1363 1362 1361 1361 1361 1360 1355 1357 1360 1363 1367 1368 1371 1371 1368
1433 1432 1431 1432 1433 1435 1435 1433 1431 1428 1425 1421 1417 1413 1409 1405 1402 1396 1390 1385 1380 1376 1372 1368 1363 1360 1358 1356 1353 1351 1349 1348 1348 1348 1345 1346 1349 1353 1355 1357 1359 1361 1360
1433 1433 1432 1432 1432 1432 1430 1428 1426 1423 1419 1415 1411 1407 1401 1397 1393 1387 1383 1377 1372 1367 1362 1357 1353 1348 1345 1345 1343 1340 1338 1336 1337 1336 1336 1338 1340 1343 1346 1348 1348 1352 1349
1434 1433 1432 1431 1430 1428 1426 1424 1420 1417 1413 1409 1404 1400 1395 1390 1385 1380 1376 1370 1364 1359 1353 1348 1343 1339 1336 1333 1331 1329 1327 1326 1326 1325 1325 1327 1330 1332 1336 1338 1340 1340 1344
1433 1433 1432 1429 1427 1424 1422 1419 1415 1411 1407 1403 1398 1394 1389 1384 1378 1373 1369 1363 1357 1350 1344 1338 1333 1327 1324 1322 1321 1319 1317 1317 1316 1316 1317 1318 1320 1322 1324 1327 1330 1332 1334
1433 1430 1428 1425 1423 1420 1416 1413 1409 1405 1401 1397 1392 1386 1382 1377 1372 1367 1362 1357 1351 1345 1338 1331 1324 1319 1315 1313 1311 1309 1308 1307 1307 1307 1308 1309 1312 1314 1317 1318 1320 1322 1324
1430 1427 1425 1422 1418 1415 1412 1408 1404 1400 1396 1391 1386 1380 1375 1371 1366 1361 1356 1351 1346 1339 1333 1326 1320 1314 1309 1306 1303 1300 1298 1297 1296 1297 1298 1301 1303 1307 1310 1312 1313 1315 1317
1427 1424 1421 1418 1415 1411 1407 1404 1400 1396 1392 1387 1382 1377 1372 1367 1361 1356 1351 1346 1341 1335 1329 1323 1316 1310 1305 1300 1297 1294 1291 1287 1285 1285 1288 1291 1295 1300 1303 1305 1306 1307 1309
1424 1421 1417 1414 1410 1407 1404 1401 1398 1394 1390 1385 1380 1375 1370 1363 1359 1355 1349 1345 1340 1334 1327 1321 1314 1307 1302 1298 1293 1290 1288 1283 1279 1281 1284 1287 1291 1295 1297 1299 1300 1301 1304
1420 1417 1413 1410 1407 1404 1400 1397 1395 1391 1388 1384 1379 1374 1368 1362 1357 1352 1347 1343 1338 1333 1328 1322 1315 1309 1304 1299 1294 1291 1288 1285 1283 1282 1285 1287 1290 1292 1293 1295 1297 1298 1302
1416 1413 1410 1407 1404 1400 1397 1394 1390 1387 1385 1381 1376 1371 1365 1360 1355 1349 1345 1342 1337 1333 1328 1323 1318 1312 1306 1302 1298 1294 1291 1288 1287 1287 1288 1289 1290 1290 1289 1292 1295 1298 1301
1413 1410 1407 1404 1402 1398 1395 1392 1389 1385 1380 1377 1373 1368 1363 1358 1354 1349 1345 1342 1337 1333 1329 1326 1321 1315 1310 1306 1302 1298 1295 1293 1291 1289 1289 1290 1291 1292 1293 1294 1296 1298 1299
1410 1407 1404 1402 1399 1396 1393 1390 1387 1383 1379 1375 1371 1367 1362 1358 1354 1350 1346 1341 1338 1335 1331 1327 1324 1319 1314 1310 1307 1303 1300 1297 1295 1294 1293 1292 1293 1294 1294 1295 1296 1298 1299
1407 1405 1402 1400 1397 1394 1391 1388 1384 1381 1378 1374 1371 1366 1362 1358 1354 1350 1347 1343 1340 1337 1334 1330 1327 1323 1319 1315 1312 1309 1305 1302 1299 1298 1297 1296 1295 1295 1296 1296 1297 1298 1299
1405 1402 1400 1398 1395 1392 1389 1386 1383 1380 1377 1374 1371 1367 1363 1360 1356 1353 1349 1346 1342 1339 1336 1333 1331 1327 1323 1320 1316 1313 1310 1307 1305 1302 1301 1300 1299 1299 1298 1299 1300 1301 1302
1403 1400 1398 1395 1393 1390 1387 1385 1382 1379 1376 1373 1370 1367 1364 1361 1358 1355 1352 1348 1345 1342 1339 1336 1333 1330 1327 1325 1322 1319 1316 1313 1311 1308 1306 1305 1304 1303 1303 1303 1304 1305 1306
1401 1398 1396 1393 1391 1389 1386 1383 1381 1378 1375 1373 1370 1367 1364 1361 1359 1356 1353 1351 1348 1345 1342 1339 1336 1334 1332 1329 1327 1324 1321 1319 1317 1315 1312 1310 1309 1308 1308 1308 1309 1310 1311
1399 1397 1394 1392 1389 1387 1385 1382 1380 1377 1375 1372 1370 1366 1364 1362 1359 1357 1354 1352 1349 1347 1344 1342 1339 1337 1335 1333 1330 1328 1326 1324 1322 1320 1318 1316 1315 1314 1313 1313 1314 1315 1316
1397 1395 1392 1390 1388 1386 1384 1381 1379 1377 1374 1372 1369 1367 1365 1362 1360 1358 1356 1353 1351 1349 1346 1344 1342 1340 1338 1336 1333 1331 1330 1328 1326 1324 1323 1321 1320 1320 1320 1320 1320 1320 1321
1395 1393 1391 1389 1387 1385 1382 1380 1378 1376 1373 1372 1369 1367 1365 1363 1361 1359 1357 1355 1353 1351 1349 1347 1345 1343 1340 1338 1336 1334 1333 1331 1329 1328 1327 1325 1324 1324 1324 1324 1325 1325 1326